Location: Leiter
(44.7178°N, 106.2687°W)
Time: 09:57:05
(UTC+00:00)

ESTCUBE 1 - Pass Details

Date: 05 July 2022
Orbit: 645 x 657 km, 97.9° (Epoch: 15 August)

Event Time Altitude Azimuth Distance (km) Brightness Sun altitude
Exits shadow 05:27:55 33° 192° (SSW) 1,093 ? -18.6°
Maximum altitude 05:29:47 61° 259° (W) 740 ? -18.7°
Drops below altitude 10° 05:34:14 10° 340° (NNW) 2,061 ? -19.1°
Sets 05:36:29 0° 344° (NNW) 2,978 ? -19.2°
